Photometre #851[NE_1.6_Dp] Glasgow_MO AOT

File : 20221125_851.hum

25/11/2022,01:21:25,TEMP=6.6,BA=5.64,STAT.D,ExtBa=12.40
25/11/2022,01:33:25,TEMP=6.7,BA=5.64,STAT.D,ExtBa=12.30
25/11/2022,01:45:25,TEMP=6.6,BA=5.64,STAT.D,ExtBa=12.30
25/11/2022,01:57:25,TEMP=6.5,BA=5.64,STAT.D,ExtBa=12.30
25/11/2022,02:09:25,TEMP=6.5,BA=5.64,STAT.D,ExtBa=12.30
25/11/2022,02:21:24,TEMP=6.6,BA=5.64,STAT.D,ExtBa=12.30
25/11/2022,02:33:24,TEMP=6.7,BA=5.64,STAT.D,ExtBa=12.30
25/11/2022,02:45:24,TEMP=6.7,BA=5.64,STAT.D,ExtBa=12.30
25/11/2022,02:57:24,TEMP=6.4,BA=5.64,STAT.D,ExtBa=12.30
25/11/2022,03:09:24,TEMP=6.3,BA=5.64,STAT.D,ExtBa=12.30
25/11/2022,03:21:24,TEMP=6.4,BA=5.64,STAT.D,ExtBa=12.30
25/11/2022,03:33:24,TEMP=6.5,BA=5.64,STAT.D,ExtBa=12.30
25/11/2022,03:45:23,TEMP=6.3,BA=5.64,STAT.D,ExtBa=12.30
25/11/2022,03:57:23,TEMP=5.9,BA=5.64,STAT.D,ExtBa=12.30
25/11/2022,04:09:23,TEMP=5.7,BA=5.64,STAT.D,ExtBa=12.30
25/11/2022,04:21:23,TEMP=5.6,BA=5.64,STAT.D,ExtBa=12.30
25/11/2022,04:33:23,TEMP=5.7,BA=5.64,STAT.D,ExtBa=12.30
25/11/2022,04:45:23,TEMP=6.2,BA=5.64,STAT.D,ExtBa=12.30
25/11/2022,04:57:23,TEMP=6.6,BA=5.64,STAT.D,ExtBa=12.30
25/11/2022,05:09:23,TEMP=6.7,BA=5.64,STAT.D,ExtBa=12.30
25/11/2022,05:21:23,TEMP=6.5,BA=5.64,STAT.D,ExtBa=12.30
25/11/2022,05:33:22,TEMP=6.3,BA=5.64,STAT.D,ExtBa=12.30
25/11/2022,05:45:22,TEMP=6.2,BA=5.64,STAT.D,ExtBa=12.30
25/11/2022,05:57:22,TEMP=6.1,BA=5.64,STAT.D,ExtBa=12.30
25/11/2022,06:09:22,TEMP=6.2,BA=5.64,STAT.D,ExtBa=12.30
25/11/2022,06:21:22,TEMP=6.5,BA=5.64,STAT.D,ExtBa=12.30
25/11/2022,06:33:22,TEMP=6.7,BA=5.64,STAT.D,ExtBa=12.30
25/11/2022,06:45:22,TEMP=6.8,BA=5.64,STAT.D,ExtBa=12.30
25/11/2022,06:57:22,TEMP=7.1,BA=5.64,STAT.D,ExtBa=12.30
25/11/2022,07:09:22,TEMP=7.4,BA=5.64,STAT.D,ExtBa=12.30
25/11/2022,07:21:23,TEMP=7.6,BA=5.64,STAT.D,ExtBa=12.30
25/11/2022,07:33:22,TEMP=7.7,BA=5.64,STAT.D,ExtBa=12.30
25/11/2022,07:45:23,TEMP=7.9,BA=5.64,STAT.D,ExtBa=12.30
25/11/2022,07:57:23,TEMP=7.9,BA=5.64,STAT.D,ExtBa=12.30
25/11/2022,08:09:23,TEMP=8.0,BA=5.64,STAT.D,ExtBa=12.30
25/11/2022,08:21:23,TEMP=8.2,BA=5.64,STAT.D,ExtBa=12.30
25/11/2022,08:33:23,TEMP=7.9,BA=5.64,STAT.D,ExtBa=12.30
25/11/2022,08:45:23,TEMP=7.9,BA=5.64,STAT.D,ExtBa=12.30
25/11/2022,08:57:23,TEMP=8.2,BA=5.64,STAT.D,ExtBa=12.30
25/11/2022,09:00:23,TEMP=8.6,BA=5.64,STAT.D,ExtBa=12.30
25/11/2022,09:03:23,TEMP=8.8,BA=5.64,STAT.D,ExtBa=12.20
25/11/2022,09:06:23,TEMP=9.0,BA=5.64,STAT.D,ExtBa=12.20
25/11/2022,09:09:23,TEMP=9.2,BA=5.64,STAT.D,ExtBa=12.20
25/11/2022,09:12:23,TEMP=9.4,BA=5.64,STAT.D,ExtBa=12.20
25/11/2022,09:15:23,TEMP=9.6,BA=5.64,STAT.D,ExtBa=12.20
25/11/2022,09:18:23,TEMP=9.7,BA=5.64,STAT.D,ExtBa=12.20
25/11/2022,09:20:28,TEMP=10.1,BA=5.64,STAT.D,ExtBa=12.20
25/11/2022,09:27:23,TEMP=9.8,BA=5.64,STAT.D,ExtBa=12.20
25/11/2022,09:30:23,TEMP=10.1,BA=5.64,STAT.D,ExtBa=12.20
25/11/2022,09:33:23,TEMP=10.3,BA=5.64,STAT.D,ExtBa=12.20
25/11/2022,09:35:25,TEMP=10.6,BA=5.64,STAT.D,ExtBa=12.20
25/11/2022,09:39:23,TEMP=10.3,BA=5.64,STAT.D,ExtBa=12.20
25/11/2022,09:42:23,TEMP=10.4,BA=5.64,STAT.D,ExtBa=12.20
25/11/2022,09:50:25,TEMP=9.8,BA=5.64,STAT.D,ExtBa=12.20
25/11/2022,10:03:23,TEMP=9.6,BA=5.64,STAT.D,ExtBa=12.20
25/11/2022,10:05:35,TEMP=10.1,BA=5.64,STAT.F,ExtBa=12.20
25/11/2022,10:32:26,TEMP=10.5,BA=5.64,STAT.D,ExtBa=12.10
25/11/2022,10:35:25,TEMP=10.4,BA=5.64,STAT.D,ExtBa=12.10
25/11/2022,10:39:23,TEMP=10.2,BA=5.64,STAT.D,ExtBa=12.20
25/11/2022,10:42:23,TEMP=10.3,BA=5.64,STAT.D,ExtBa=12.20
25/11/2022,10:45:23,TEMP=10.4,BA=5.64,STAT.D,ExtBa=12.10
25/11/2022,10:48:23,TEMP=10.5,BA=5.64,STAT.D,ExtBa=12.10
25/11/2022,10:50:25,TEMP=10.9,BA=5.64,STAT.D,ExtBa=12.10
25/11/2022,10:54:23,TEMP=10.8,BA=5.64,STAT.D,ExtBa=12.20
25/11/2022,10:57:23,TEMP=11.1,BA=5.64,STAT.D,ExtBa=12.10
25/11/2022,11:00:23,TEMP=11.4,BA=5.64,STAT.D,ExtBa=12.10
25/11/2022,11:03:23,TEMP=11.7,BA=5.64,STAT.D,ExtBa=12.10
25/11/2022,11:05:27,TEMP=11.9,BA=5.64,STAT.F,ExtBa=12.10
25/11/2022,11:31:07,TEMP=11.9,BA=5.64,STAT.D,ExtBa=12.10
25/11/2022,11:35:25,TEMP=11.0,BA=5.64,STAT.D,ExtBa=12.10
25/11/2022,11:48:23,TEMP=10.6,BA=5.64,STAT.D,ExtBa=12.20
25/11/2022,11:50:25,TEMP=10.9,BA=5.64,STAT.D,ExtBa=12.10
25/11/2022,12:03:23,TEMP=9.6,BA=5.64,STAT.D,ExtBa=12.20
25/11/2022,12:05:27,TEMP=9.9,BA=5.64,STAT.F,ExtBa=12.20
25/11/2022,12:18:23,TEMP=9.9,BA=5.64,STAT.D,ExtBa=12.20
25/11/2022,12:20:25,TEMP=10.4,BA=5.64,STAT.D,ExtBa=12.20
25/11/2022,12:24:23,TEMP=10.6,BA=5.64,STAT.D,ExtBa=12.20
25/11/2022,12:27:24,TEMP=11.1,BA=5.64,STAT.D,ExtBa=12.10
25/11/2022,12:30:23,TEMP=11.3,BA=5.64,STAT.D,ExtBa=12.10
25/11/2022,12:33:23,TEMP=11.1,BA=5.64,STAT.D,ExtBa=12.10
25/11/2022,12:35:25,TEMP=11.1,BA=5.64,STAT.D,ExtBa=12.10
25/11/2022,12:48:23,TEMP=9.1,BA=5.64,STAT.D,ExtBa=12.20
25/11/2022,12:50:25,TEMP=9.4,BA=5.64,STAT.D,ExtBa=12.20
25/11/2022,13:03:23,TEMP=8.7,BA=5.64,STAT.D,ExtBa=12.20
25/11/2022,13:05:27,TEMP=9.2,BA=5.64,STAT.F,ExtBa=12.20
25/11/2022,13:18:23,TEMP=9.6,BA=5.64,STAT.D,ExtBa=12.20
25/11/2022,13:20:25,TEMP=10.0,BA=5.64,STAT.D,ExtBa=12.10
25/11/2022,13:24:23,TEMP=9.9,BA=5.64,STAT.D,ExtBa=12.10
25/11/2022,13:35:25,TEMP=9.7,BA=5.64,STAT.D,ExtBa=12.20
25/11/2022,13:48:23,TEMP=9.7,BA=5.64,STAT.D,ExtBa=12.20
25/11/2022,13:50:25,TEMP=10.1,BA=5.64,STAT.D,ExtBa=12.20
25/11/2022,14:03:23,TEMP=9.9,BA=5.64,STAT.D,ExtBa=12.20
25/11/2022,14:05:27,TEMP=10.3,BA=5.64,STAT.F,ExtBa=12.20
25/11/2022,14:18:23,TEMP=10.1,BA=5.64,STAT.D,ExtBa=12.20
25/11/2022,14:20:25,TEMP=10.5,BA=5.64,STAT.D,ExtBa=12.20
25/11/2022,14:33:23,TEMP=10.4,BA=5.64,STAT.D,ExtBa=12.20
25/11/2022,14:35:25,TEMP=10.8,BA=5.64,STAT.D,ExtBa=12.20
25/11/2022,14:48:23,TEMP=10.2,BA=5.64,STAT.D,ExtBa=12.20
25/11/2022,14:50:25,TEMP=10.5,BA=5.64,STAT.D,ExtBa=12.20